EW5209 Weather Reports


Display with metric or nautical units.
time (UTC)temp
F
wind
direction
speed
MPH
gust
MPH
rain 1hr
in
rain 24hr
in
rain mn
in
humidity
%
barometer
mb
20260504014938 69 139 0.0 1.0 0.00 0.00 0.00 56 1015.7
20260504014439 69 139 0.0 1.0 0.00 0.00 0.00 56 1015.8
20260504013943 70 139 0.0 0.0 0.00 0.00 0.00 55 1015.6
20260504013937 69 139 0.0 1.0 0.00 0.00 0.00 55 1015.8
20260504012941 71 160 0.0 2.0 0.00 0.00 0.00 53 1015.7
20260504012935 70 156 0.0 0.0 0.00 0.00 0.00 54 1015.6
20260504011936 71 160 0.0 2.0 0.00 0.00 0.00 52 1015.6
20260504011433 72 175 0.0 4.0 0.00 0.00 0.00 51 1015.7
20260504010935 73 205 0.0 4.0 0.00 0.00 0.00 49 1015.8
20260504010434 73 117 0.0 4.0 0.00 0.00 0.00 48 1015.7
20260504005933 74 136 1.0 7.0 0.00 0.00 0.00 47 1015.7
20260504005433 74 209 1.0 7.0 0.00 0.00 0.00 46 1015.6
20260504004933 75 212 1.0 7.0 0.00 0.00 0.00 45 1015.6
20260504004434 76 130 2.0 7.0 0.00 0.00 0.00 44 1015.6
20260504003933 77 169 2.0 6.0 0.00 0.00 0.00 43 1015.7
20260504003438 77 187 2.0 7.0 0.00 0.00 0.00 42 1015.7
20260504003432 77 208 2.0 6.0 0.00 0.00 0.00 42 1015.7
20260504002433 78 155 2.0 7.0 0.00 0.00 0.00 42 1015.7
20260504001933 78 191 3.0 10.0 0.00 0.00 0.00 42 1015.7
20260504001434 78 198 3.0 10.0 0.00 0.00 0.00 41 1015.7
20260504000939 79 192 3.0 9.0 0.00 0.00 0.00 40 1015.7
20260504000933 78 243 3.0 9.0 0.00 0.00 0.00 41 1015.7
20260503235934 79 182 3.0 9.0 0.00 0.00 0.00 41 1015.8
20260503235434 80 171 3.0 9.0 0.00 0.00 0.00 40 1015.8
20260503234933 80 229 3.0 9.0 0.00 0.00 0.00 39 1016.0
20260503234432 80 177 3.0 9.0 0.00 0.00 0.00 39 1016.0
20260503233933 80 176 3.0 7.0 0.00 0.00 0.00 40 1016.0
20260503233432 80 218 3.0 11.0 0.00 0.00 0.00 39 1016.0
20260503232932 80 114 3.0 11.0 0.00 0.00 0.00 38 1016.0
20260503232430 80 207 3.0 11.0 0.00 0.00 0.00 37 1016.0
20260503231930 80 144 3.0 11.0 0.00 0.00 0.00 38 1016.0
20260503231432 80 200 4.0 11.0 0.00 0.00 0.00 37 1016.0
20260503230928 80 217 4.0 11.0 0.00 0.00 0.00 36 1016.1
20260503230438 81 232 4.0 10.0 0.00 0.00 0.00 35 1016.1
20260503230429 80 220 4.0 10.0 0.00 0.00 0.00 37 1016.0
20260503225932 80 186 4.0 10.0 0.00 0.00 0.00 34 1016.1
20260503224928 81 156 3.0 9.0 0.00 0.00 0.00 35 1016.1
20260503224430 80 203 4.0 12.0 0.00 0.00 0.00 36 1016.1
20260503223934 80 96 5.0 12.0 0.00 0.00 0.00 36 1016.2
20260503223928 81 136 4.0 12.0 0.00 0.00 0.00 37 1016.1
20260503222935 81 211 5.0 13.0 0.00 0.00 0.00 36 1016.3
20260503222931 80 168 5.0 12.0 0.00 0.00 0.00 35 1016.2
20260503221930 81 154 4.0 13.0 0.00 0.00 0.00 36 1016.3
20260503221429 81 269 6.0 13.0 0.00 0.00 0.00 38 1016.4
20260503220928 80 145 7.0 13.0 0.00 0.00 0.00 37 1016.5
20260503220434 81 194 6.0 13.0 0.00 0.00 0.00 37 1016.5
20260503220429 81 257 6.0 13.0 0.00 0.00 0.00 37 1016.5
20260503215434 81 238 6.0 13.0 0.00 0.00 0.00 35 1016.7
20260503215429 81 253 7.0 13.0 0.00 0.00 0.00 36 1016.7
20260503214429 81 235 4.0 13.0 0.00 0.00 0.00 36 1016.7
20260503213930 81 243 3.0 11.0 0.00 0.00 0.00 35 1016.7
20260503213427 81 181 3.0 11.0 0.00 0.00 0.00 35 1016.9
20260503212927 81 98 5.0 12.0 0.00 0.00 0.00 35 1016.9
20260503212426 81 212 5.0 12.0 0.00 0.00 0.00 36 1017.1
20260503211926 81 239 5.0 12.0 0.00 0.00 0.00 36 1017.1
20260503211433 80 245 5.0 12.0 0.00 0.00 0.00 34 1017.2
20260503211427 80 209 6.0 12.0 0.00 0.00 0.00 36 1017.1
20260503210426 81 209 7.0 16.0 0.00 0.00 0.00 36 1017.4
20260503205926 81 167 6.0 16.0 0.00 0.00 0.00 38 1017.4
20260503205425 81 282 4.0 11.0 0.00 0.00 0.00 36 1017.5
20260503204922 81 156 5.0 11.0 0.00 0.00 0.00 37 1017.7
20260503204424 81 198 5.0 13.0 0.00 0.00 0.00 37 1017.8
20260503203922 81 228 5.0 13.0 0.00 0.00 0.00 38 1017.8
20260503203422 80 242 6.0 12.0 0.00 0.00 0.00 34 1017.9
20260503202926 81 245 4.0 12.0 0.00 0.00 0.00 40 1018.1
20260503202921 81 236 5.0 12.0 0.00 0.00 0.00 37 1018.0
20260503201925 81 144 5.0 12.0 0.00 0.00 0.00 40 1018.1
20260503201422 81 193 5.0 13.0 0.00 0.00 0.00 39 1018.2
20260503200920 80 171 4.0 13.0 0.00 0.00 0.00 40 1018.4
20260503200421 80 251 5.0 14.0 0.00 0.00 0.00 39 1018.4
20260503195920 80 174 5.0 14.0 0.00 0.00 0.00 38 1018.5
20260503195421 80 191 6.0 14.0 0.00 0.00 0.00 39 1018.5
20260503194920 80 197 8.0 14.0 0.00 0.00 0.00 44 1018.7
20260503194426 80 145 7.0 14.0 0.00 0.00 0.00 41 1018.9
20260503194420 80 229 7.0 14.0 0.00 0.00 0.00 40 1018.8
20260503193420 80 243 7.0 14.0 0.00 0.00 0.00 41 1018.9
20260503192919 80 199 7.0 14.0 0.00 0.00 0.00 41 1018.9
20260503192423 80 237 6.0 14.0 0.00 0.00 0.00 39 1019.2
20260503191920 80 231 6.0 14.0 0.00 0.00 0.00 41 1019.3
20260503191416 79 232 7.0 15.0 0.00 0.00 0.00 40 1019.4
20260503190921 80 155 6.0 15.0 0.00 0.00 0.00 41 1019.4
20260503190917 79 266 6.0 15.0 0.00 0.00 0.00 40 1019.3
20260503185921 79 207 6.0 18.0 0.00 0.00 0.00 41 1019.5
20260503185916 80 212 6.0 15.0 0.00 0.00 0.00 41 1019.4
20260503184922 79 194 8.0 18.0 0.00 0.00 0.00 38 1019.6
20260503184916 79 260 8.0 18.0 0.00 0.00 0.00 39 1019.6
20260503183917 80 198 6.0 18.0 0.00 0.00 0.00 39 1019.7
20260503183421 79 186 6.0 14.0 0.00 0.00 0.00 39 1019.8
20260503183416 80 195 6.0 14.0 0.00 0.00 0.00 43 1019.8
20260503182414 79 251 6.0 16.0 0.00 0.00 0.00 41 1019.9
20260503181916 79 238 7.0 16.0 0.00 0.00 0.00 41 1020.0
20260503181415 79 220 8.0 16.0 0.00 0.00 0.00 43 1020.1
20260503180914 78 236 7.0 16.0 0.00 0.00 0.00 41 1020.2
20260503180415 78 239 7.0 14.0 0.00 0.00 0.00 38 1020.3
20260503175914 78 268 7.0 14.0 0.00 0.00 0.00 40 1020.4
20260503175414 79 234 6.0 12.0 0.00 0.00 0.00 42 1020.4
20260503174919 78 236 6.0 14.0 0.00 0.00 0.00 45 1020.6
20260503174915 78 219 6.0 14.0 0.00 0.00 0.00 45 1020.5
20260503173918 78 207 6.0 11.0 0.00 0.00 0.00 45 1020.8
20260503173913 78 248 7.0 14.0 0.00 0.00 0.00 45 1020.8
20260503172913 78 217 8.0 15.0 0.00 0.00 0.00 45 1021.0
20260503172412 77 186 8.0 15.0 0.00 0.00 0.00 45 1020.9
20260503171917 77 248 8.0 15.0 0.00 0.00 0.00 46 1021.1
20260503171913 77 136 8.0 15.0 0.00 0.00 0.00 46 1020.9
20260503170912 77 234 7.0 14.0 0.00 0.00 0.00 45 1021.2
20260503170418 77 236 8.0 14.0 0.00 0.00 0.00 45 1021.2
20260503170412 77 250 6.0 14.0 0.00 0.00 0.00 46 1021.2
20260503150911 71 219 8.0 16.0 0.00 0.00 0.00 56 1021.6
20260503150907 72 236 8.0 14.0 0.00 0.00 0.00 56 1021.6
20260503131403 63 240 2.0 8.0 0.00 0.00 0.00 71 1021.2
20260503130903 62 219 2.0 6.0 0.00 0.00 0.00 71 1021.1
20260503130408 61 228 2.0 6.0 0.00 0.00 0.00 73 1021.1
20260503130402 62 242 2.0 6.0 0.00 0.00 0.00 71 1021.1
20260503120111 0 0.0 0.0 0.00 0.00 0.00 1020.5
20260503110809 0 0.0 0.0 0.00 0.00 0.00 1020.1
20260503110222 0 0.0 0.0 0.00 0.00 0.00 1020.1
20260503110218 0 0.0 0.0 0.00 0.00 0.00 1020.1
20260503090422 59 240 1.0 4.0 0.00 0.00 0.00 73 1019.8
20260503080919 59 205 0.0 0.0 0.00 0.00 0.00 72 1019.7
20260503080418 59 200 0.0 0.0 0.00 0.00 0.00 72 1019.6
20260503072916 59 230 0.0 0.0 0.00 0.00 0.00 68 1019.9
20260503072415 59 224 0.0 0.0 0.00 0.00 0.00 68 1019.9
20260503071914 59 245 0.0 0.0 0.00 0.00 0.00 69 1019.9
20260503071415 59 159 0.0 0.0 0.00 0.00 0.00 69 1019.9
20260503070913 59 159 0.0 0.0 0.00 0.00 0.00 68 1019.9
20260503070413 59 159 0.0 0.0 0.00 0.00 0.00 67 1020.0
20260503054905 60 159 0.0 2.0 0.00 0.00 0.00 64 1020.1
20260503054404 60 159 0.0 2.0 0.00 0.00 0.00 64 1020.1
20260503053905 60 159 0.0 2.0 0.00 0.00 0.00 64 1020.0
20260503053410 60 159 0.0 0.0 0.00 0.00 0.00 64 1020.0
20260503053405 60 159 0.0 2.0 0.00 0.00 0.00 64 1020.1
20260503052406 60 159 0.0 0.0 0.00 0.00 0.00 64 1020.0
20260503051905 60 159 0.0 0.0 0.00 0.00 0.00 64 1019.9
20260503051406 60 159 0.0 0.0 0.00 0.00 0.00 64 1019.9
20260503050902 60 159 0.0 0.0 0.00 0.00 0.00 64 1019.8
20260503050405 60 159 0.0 0.0 0.00 0.00 0.00 65 1019.7
20260503045905 60 159 0.0 0.0 0.00 0.00 0.00 64 1019.8
20260503045404 60 159 0.0 0.0 0.00 0.00 0.00 64 1019.7
20260503044904 60 159 0.0 0.0 0.00 0.00 0.00 64 1019.8
20260503044409 61 159 0.0 0.0 0.00 0.00 0.00 64 1019.8
20260503044404 60 159 0.0 0.0 0.00 0.00 0.00 64 1019.8
20260503043403 61 159 0.0 0.0 0.00 0.00 0.00 64 1019.8
20260503042903 61 159 0.0 1.0 0.00 0.00 0.00 64 1019.9
20260503042405 61 159 0.0 1.0 0.00 0.00 0.00 64 1019.8
20260503041903 61 159 0.0 0.0 0.00 0.00 0.00 64 1019.8
20260503041402 61 159 0.0 0.0 0.00 0.00 0.00 64 1019.8
20260503040902 61 159 0.0 0.0 0.00 0.00 0.00 63 1019.8
20260503040401 61 159 0.0 0.0 0.00 0.00 0.00 63 1019.8
20260503035901 62 159 0.0 0.0 0.00 0.00 0.00 64 1020.0
20260503035407 61 159 0.0 0.0 0.00 0.00 0.00 64 1019.9
20260503035401 62 159 0.0 0.0 0.00 0.00 0.00 64 1019.9
20260503035020 61 159 0.0 0.0 0.00 0.00 0.00 64 1019.9
20260503033901 62 159 0.0 0.0 0.00 0.00 0.00 65 1019.9
20260503033400 62 159 0.0 0.0 0.00 0.00 0.00 64 1019.9
20260503032859 62 159 0.0 0.0 0.00 0.00 0.00 64 1019.8
20260503032403 62 159 0.0 0.0 0.00 0.00 0.00 64 1019.7
20260503032357 62 159 0.0 0.0 0.00 0.00 0.00 64 1019.7
20260503031357 62 159 0.0 0.0 0.00 0.00 0.00 64 1019.7
20260503030903 63 159 0.0 0.0 0.00 0.00 0.00 62 1019.6
20260503030858 62 159 0.0 0.0 0.00 0.00 0.00 63 1019.7
20260503025858 63 159 0.0 0.0 0.00 0.00 0.00 62 1019.6
20260503025359 63 159 0.0 0.0 0.00 0.00 0.00 61 1019.6
20260503024857 64 159 0.0 0.0 0.00 0.00 0.00 61 1019.5
20260503024357 64 159 0.0 0.0 0.00 0.00 0.00 61 1019.4
20260503023903 64 159 0.0 0.0 0.00 0.00 0.00 61 1019.4
20260503023857 64 159 0.0 0.0 0.00 0.00 0.00 61 1019.4
20260503022857 64 159 0.0 0.0 0.00 0.00 0.00 61 1019.3
20260503022400 64 159 0.0 0.0 0.00 0.00 0.00 60 1019.3
20260503022355 64 159 0.0 0.0 0.00 0.00 0.00 60 1019.3
20260503021357 64 118 0.0 0.0 0.00 0.00 0.00 59 1019.2
20260503020855 64 118 0.0 0.0 0.00 0.00 0.00 58 1019.2
20260503020356 65 118 0.0 0.0 0.00 0.00 0.00 57 1018.9
20260503015855 65 118 0.0 0.0 0.00 0.00 0.00 54 1018.9